{"data":{"norad_id":67757,"epoch":"2026-09-19T22:15:50.865984Z","epoch_age_seconds":67644,"freshness":"FRESH","line1":"1 67757U 26028B   26262.92767206  .00000152  00000+0  00000+0 0  9993","line2":"2 67757   0.1525   4.5374 0000471  49.4487 312.6980  1.00270046  2065","mean_motion":1.00270046,"eccentricity":4.71e-5,"inclination_deg":0.1525,"raan_deg":4.5374,"arg_perigee_deg":49.4487,"mean_anomaly_deg":312.698,"bstar":0,"rev_number":206,"period_min":1436.1218104956,"perigee_km":35785.096491227,"apogee_km":35789.068454901,"semimajor_km":42165.219473064,"source":"CELESTRAK","updated_at":"2026-09-20T09:00:35.348895Z"}}